DW0088 Weather Reports


Display with metric or nautical units.
time (UTC)temp
F
wind
direction
speed
MPH
gust
MPH
rain 1hr
in
rain 24hr
in
rain mn
in
humidity
%
barometer
mb
20260508081936 56 78 4.0 8.0 0.00 0.00 0.00 83 1017.3
20260508074936 55 62 4.0 7.0 0.00 0.00 0.00 84 1017.2
20260508072937 54 52 4.0 7.0 0.00 0.00 0.00 87 1017.1
20260508071936 54 61 4.0 7.0 0.00 0.00 0.00 87 1017.1
20260508070936 53 70 4.0 7.0 0.00 0.00 0.00 87 1017.1
20260508065937 53 63 5.0 8.0 0.00 0.00 0.00 88 1017.0
20260508064936 53 90 4.0 7.0 0.00 0.00 0.00 88 1017.0
20260508063937 53 74 3.0 7.0 0.00 0.00 0.00 89 1016.9
20260508062937 52 70 4.0 7.0 0.00 0.00 0.00 89 1016.8
20260508061936 52 84 4.0 7.0 0.00 0.00 0.00 89 1016.8
20260508060937 52 71 3.0 5.0 0.00 0.00 0.00 90 1016.7
20260508055936 51 82 4.0 8.0 0.00 0.00 0.00 90 1016.7
20260508054937 51 75 4.0 7.0 0.00 0.00 0.00 90 1016.7
20260508053937 51 65 4.0 9.0 0.00 0.00 0.00 91 1016.6
20260508051937 51 67 3.0 8.0 0.00 0.00 0.00 91 1016.6
20260508050936 50 79 2.0 5.0 0.00 0.00 0.00 91 1016.5
20260508045936 50 69 3.0 7.0 0.00 0.00 0.00 91 1016.5
20260508044937 50 72 4.0 7.0 0.00 0.00 0.00 91 1016.5
20260508043937 50 69 3.0 5.0 0.00 0.00 0.00 91 1016.5
20260508042937 50 76 2.0 5.0 0.00 0.00 0.00 91 1016.3
20260508041937 50 77 3.0 5.0 0.00 0.00 0.00 91 1016.3
20260508040937 51 76 2.0 5.0 0.00 0.00 0.00 91 1016.3
20260508035937 51 74 2.0 5.0 0.00 0.00 0.00 91 1016.2
20260508034937 51 78 2.0 5.0 0.00 0.00 0.00 90 1016.2
20260508033937 51 75 4.0 7.0 0.00 0.00 0.00 90 1016.1
20260508032937 51 77 4.0 8.0 0.00 0.00 0.00 90 1016.2
20260508031937 51 86 4.0 8.0 0.00 0.00 0.00 89 1016.2
20260508030938 51 85 4.0 8.0 0.00 0.00 0.00 89 1016.1
20260508025937 51 90 3.0 7.0 0.00 0.00 0.00 89 1016.1
20260508024937 51 94 2.0 5.0 0.00 0.00 0.00 89 1016.1
20260508022937 51 70 3.0 4.0 0.00 0.00 0.00 89 1016.0
20260508021937 51 65 3.0 5.0 0.00 0.00 0.00 89 1016.0
20260508015937 52 70 4.0 6.0 0.00 0.00 0.00 88 1016.0
20260508014938 51 78 3.0 7.0 0.00 0.00 0.00 88 1016.0
20260508013937 51 77 2.0 4.0 0.00 0.00 0.00 89 1016.0
20260508012937 51 73 2.0 3.0 0.00 0.00 0.00 90 1016.0
20260508011937 51 65 2.0 4.0 0.00 0.00 0.00 89 1016.0
20260508010938 52 75 3.0 5.0 0.00 0.00 0.00 89 1016.0
20260508005937 51 76 3.0 6.0 0.00 0.00 0.00 90 1016.1
20260508004938 52 74 2.0 4.0 0.00 0.00 0.00 91 1016.1
20260508003937 51 90 1.0 5.0 0.00 0.00 0.00 92 1016.1
20260508001938 52 57 2.0 4.0 0.00 0.00 0.00 93 1016.1
20260508000937 51 0 0.0 0.0 0.00 0.00 0.00 91 1016.1
20260507235937 51 0 0.0 0.0 0.00 0.00 0.00 90 1016.3
20260507234937 51 0 0.0 0.0 0.00 0.00 0.00 90 1016.3
20260507233937 52 0 0.0 0.0 0.00 0.00 0.00 90 1016.5
20260507232938 52 0 0.0 0.0 0.00 0.00 0.00 90 1016.5
20260507230938 52 0 0.0 0.0 0.00 0.00 0.00 87 1016.5
20260507225938 52 0 0.0 0.0 0.00 0.00 0.00 87 1016.4
20260507224937 52 0 0.0 0.0 0.00 0.00 0.00 88 1016.4
20260507222938 52 0 0.0 0.0 0.00 0.00 0.00 87 1016.4
20260507221938 53 0 0.0 0.0 0.00 0.00 0.00 87 1016.4
20260507220937 53 0 0.0 0.0 0.00 0.00 0.00 87 1016.2
20260507215943 53 0 0.0 0.0 0.00 0.00 0.00 86 1016.2
20260507214937 53 0 0.0 0.0 0.00 0.00 0.00 86 1016.2
20260507213937 53 0 0.0 0.0 0.00 0.00 0.00 85 1016.1
20260507212938 53 0 0.0 0.0 0.00 0.00 0.00 87 1016.1
20260507211938 54 0 0.0 0.0 0.00 0.00 0.00 87 1016.1
20260507210937 54 0 0.0 0.0 0.00 0.00 0.00 84 1016.1
20260507205938 54 0 0.0 0.0 0.00 0.00 0.00 85 1016.0
20260507203937 54 0 0.0 0.0 0.00 0.00 0.00 81 1016.0
20260507202938 54 0 0.0 0.0 0.00 0.00 0.00 82 1015.9
20260507201938 55 0 0.0 0.0 0.00 0.00 0.00 83 1015.9
20260507195938 55 0 0.0 0.0 0.00 0.00 0.00 78 1015.6
20260507194938 55 0 0.0 0.0 0.00 0.00 0.00 77 1015.6
20260507193938 56 0 0.0 0.0 0.00 0.00 0.00 76 1015.6
20260507191938 57 0 0.0 0.0 0.00 0.00 0.00 74 1015.5
20260507185938 58 17 0.0 2.0 0.00 0.00 0.00 69 1015.5
20260507184938 58 17 1.0 3.0 0.00 0.00 0.00 68 1015.5
20260507183938 58 19 1.0 3.0 0.00 0.00 0.00 68 1015.5
20260507180938 59 14 1.0 3.0 0.00 0.00 0.00 66 1015.4
20260507175938 59 359 2.0 3.0 0.00 0.00 0.00 67 1015.4
20260507174938 59 281 2.0 3.0 0.00 0.00 0.00 67 1015.4
20260507173939 59 281 2.0 3.0 0.00 0.00 0.00 67 1015.3
20260507172938 59 283 2.0 4.0 0.00 0.00 0.00 66 1015.3
20260507165940 60 318 3.0 5.0 0.00 0.00 0.00 61 1015.2
20260507163939 60 65 2.0 5.0 0.00 0.00 0.00 58 1015.1
20260507162938 60 70 2.0 4.0 0.00 0.00 0.00 59 1015.2
20260507160939 60 67 2.0 5.0 0.00 0.00 0.00 57 1015.2
20260507155938 60 60 3.0 7.0 0.00 0.00 0.00 57 1015.1
20260507154939 60 98 0.0 2.0 0.00 0.00 0.00 59 1015.1
20260507152939 60 35 4.0 9.0 0.00 0.00 0.00 57 1015.0
20260507150938 60 74 3.0 8.0 0.00 0.00 0.00 57 1015.0
20260507145939 60 43 2.0 6.0 0.00 0.00 0.00 59 1015.0
20260507143939 60 34 3.0 7.0 0.00 0.00 0.00 59 1015.0
20260507142939 60 55 2.0 7.0 0.00 0.00 0.00 58 1015.1
20260507141939 60 51 5.0 8.0 0.00 0.00 0.00 60 1015.1
20260507140938 60 58 3.0 6.0 0.00 0.00 0.00 61 1015.2
20260507135940 60 75 3.0 6.0 0.00 0.00 0.00 60 1015.3
20260507133939 60 39 3.0 6.0 0.00 0.00 0.00 61 1015.3
20260507132938 60 67 2.0 5.0 0.00 0.00 0.00 62 1015.2
20260507131941 60 62 4.0 7.0 0.00 0.00 0.00 63 1015.2
20260507130939 60 62 5.0 9.0 0.00 0.00 0.00 62 1015.3
20260507123939 60 51 3.0 6.0 0.00 0.00 0.00 64 1015.2
20260507121940 59 40 3.0 7.0 0.00 0.00 0.00 62 1015.1
20260507120939 59 343 3.0 8.0 0.00 0.00 0.00 64 1015.0
20260507115941 59 301 3.0 6.0 0.00 0.00 0.00 64 1015.1
20260507114940 58 326 3.0 6.0 0.00 0.00 0.00 64 1015.1
20260507113939 58 18 4.0 7.0 0.00 0.00 0.00 64 1015.1
20260507112939 58 48 4.0 8.0 0.00 0.00 0.00 65 1015.2
20260507111939 58 301 4.0 7.0 0.00 0.00 0.00 68 1015.2
20260507110939 58 305 4.0 6.0 0.00 0.00 0.00 65 1015.2
20260507105939 58 335 4.0 8.0 0.00 0.00 0.00 67 1015.3
20260507104939 58 47 5.0 8.0 0.00 0.00 0.00 64 1015.3
20260507103940 60 49 5.0 9.0 0.00 0.00 0.00 65 1015.1
20260507102939 60 80 4.0 9.0 0.00 0.00 0.00 65 1015.1
20260507101939 60 64 7.0 10.0 0.00 0.00 0.00 68 1015.1
20260507100939 59 52 6.0 12.0 0.00 0.00 0.00 66 1015.1
20260507094940 58 36 5.0 9.0 0.00 0.00 0.00 69 1015.1
20260507092940 58 37 5.0 9.0 0.00 0.00 0.00 74 1015.0
20260507091940 57 42 7.0 12.0 0.00 0.00 0.00 72 1015.0
20260507085940 57 38 6.0 9.0 0.00 0.00 0.00 72 1015.0
20260507084940 56 21 5.0 10.0 0.00 0.01 0.00 74 1015.0
20260507083939 56 358 4.0 7.0 0.00 0.01 0.00 76 1015.0